Regional Weather Roundup
Issued by NWS

Home | Current Version | Previous Version | Text Only | Print | Product List | Glossary Off
Versions: 1 2 3 4 5 6 7 8 9 10 11 12 13 14 15 16 17 18 19 20 21 22 23 24 25 26 27 28 29 30 31 32 33 34 35 36 37 38 39 40 41 42 43 44 45 46 47 48 49 50

000
ASUS45 KSLC 161110
RWRUT

UTAH REGIONAL WEATHER ROUNDUP
NATIONAL WEATHER SERVICE SALT LAKE CITY UT
500 AM MDT MON OCT 16 2017

UTZ001>011-023>025-161200-

NORTHERN UTAH

CITY           SKY/WX    TMP DP  RH WIND       PRES   REMARKS
BRIGHAM CITY   PTCLDY    30  22  71 CALM      30.42S
HILL AFB       PTCLDY    38  18  44 E18       30.40S WCI  28
LOGAN          PTCLDY    28  22  78 CALM      30.42R
OGDEN          PTCLDY    37  20  50 S8        30.40S WCI  31
SALT LAKE CITY PTCLDY    37  28  70 SE6       30.40F WCI  32
TOOELE VALLEY  PTCLDY    28  19  69 S6        30.41S WCI  22
WENDOVER       NOT AVBL
WEST JORDAN    PTCLDY    34  22  62 SW6       30.41F WCI  28

$$

UTZ011>015-024>027-161200-

CENTRAL/NORTHEAST UTAH

CITY           SKY/WX    TMP DP  RH WIND       PRES   REMARKS
PROVO AIRPORT  PTCLDY    32  23  69 E3        30.43S
MOAB/CANYONLAN MOCLDY    32  11  41 CALM      30.43R
DELTA          MOCLDY    30  25  80 E3        30.42S
PRICE          PTCLDY    32   4  30 N5        30.45S WCI  27
ROOSEVELT      CLOUDY    27  19  74 W5        30.48R WCI  21
VERNAL         CLOUDY    28  16  60 NW3       30.46S

$$

UTZ013>016-019>022-027-161200-

SOUTHERN UTAH

CITY           SKY/WX    TMP DP  RH WIND       PRES   REMARKS
BRYCE CANYON   PTCLDY    19  -8  30 W3        30.51F
CEDAR CITY     PTCLDY    26  10  50 CALM      30.41S
MILFORD        PTCLDY    24   9  52 SW9       30.41S WCI  14
ST GEORGE      MOSUNNY   48   2  15 CALM      30.33F
HANKSVILLE     MOCLDY    28  10  47 NW6       30.47R WCI  22
BLANDING         N/A     40   4  22 CALM      30.54R

$$

REGIONAL REPORTS     COLORADO/ARIZONA

CITY           SKY/WX    TMP DP  RH WIND       PRES   REMARKS
CRAIG, CO      CLOUDY    22  16  78 CALM      30.47R
GRAND JUNCTION CLOUDY    31  14  49 E8        30.46R WCI  23
RIFLE, CO      CLOUDY    28  17  63 CALM      30.50R
MONTROSE, CO   CLOUDY    28  14  55 S8        30.50S WCI  20
CORTEZ, CO     CLOUDY    22  14  71 E6        30.49S WCI  14
COLORADO CITY    N/A     36   5  27 E3        30.40F
PAGE, AZ       PTCLDY    45   8  22 CALM      30.41R
GRAND CANYON   MOCLDY    28  -3  26 NE7       30.45F WCI  21
KINGMAN, AZ    CLEAR     45  12  26 E5        30.26F
FLAGSTAFF, AZ  CLEAR     29   3  33 CALM      30.47S

$$

REGIONAL REPORTS    NEVADA/IDAHO/WYOMING

CITY           SKY/WX    TMP DP  RH WIND       PRES   REMARKS
LAS VEGAS, NV  CLEAR     57  12  17 S6        30.23S
ELY, NY        PTCLDY    26  -2  29 S15       30.43F WCI  14
ELKO, NV       PTCLDY    28  14  55 NE3       30.40S
POCATELLO, ID  CLOUDY    24  22  91 N3        30.38F
BURLEY, ID     CLEAR     26  23  88 CALM      30.35S
FORT BRIDGER,    N/A     39   9  28 W10       30.45F WCI  32
EVANSTON, WY   CLOUDY    34  15  46 SW7       30.43F WCI  28
ROCK SPRINGS,  CLOUDY    34  12  40 W10       30.42S WCI  26
KEMMERER, WY   CLOUDY    32  12  43 NW9       30.44S WCI  24

$$



USA.gov is the U.S. government's official web portal to all federal, state and local government web resources and services.